TimeEDT,TemperatureF,Dew PointF,Humidity,Sea Level PressureIn,VisibilityMPH,Wind Direction,Wind SpeedMPH,Gust SpeedMPH,PrecipitationIn,Events,Conditions,WindDirDegrees,DateUTC
12:51 AM,48.9,45.9,89,30.13,9.0,WNW,3.5,-,N/A,,Clear,300,2012-10-27 04:51:00
1:11 AM,48.2,46.4,93,30.12,1.5,NNW,4.6,-,N/A,,Clear,330,2012-10-27 05:11:00
1:13 AM,46.4,46.4,100,30.12,0.8,NNW,4.6,-,N/A,,Clear,330,2012-10-27 05:13:00
1:16 AM,46.4,46.4,100,30.12,0.2,NW,4.6,-,N/A,Fog,Fog,320,2012-10-27 05:16:00
1:27 AM,46.4,44.6,93,30.11,0.8,NNW,3.5,-,N/A,,Clear,330,2012-10-27 05:27:00
1:31 AM,46.4,46.4,100,30.11,1.2,NW,3.5,-,N/A,,Clear,320,2012-10-27 05:31:00
1:36 AM,46.4,46.4,100,30.11,2.0,Calm,Calm,-,N/A,,Clear,0,2012-10-27 05:36:00
1:51 AM,46.9,45.9,96,30.12,3.0,Calm,Calm,-,N/A,,Partly Cloudy,0,2012-10-27 05:51:00
1:53 AM,48.2,46.4,93,30.11,1.5,Calm,Calm,-,N/A,,Mostly Cloudy,0,2012-10-27 05:53:00
1:55 AM,48.2,46.4,93,30.11,1.0,Calm,Calm,-,N/A,,Mist,0,2012-10-27 05:55:00
2:07 AM,48.2,46.4,93,30.11,3.0,Calm,Calm,-,N/A,,Mostly Cloudy,0,2012-10-27 06:07:00
2:24 AM,46.4,46.4,100,30.11,1.0,NW,3.5,-,N/A,,Overcast,310,2012-10-27 06:24:00
2:26 AM,46.4,46.4,100,30.11,0.5,NW,4.6,-,N/A,Fog,Fog,320,2012-10-27 06:26:00
2:34 AM,46.4,46.4,100,30.11,0.2,NW,3.5,-,N/A,Fog,Fog,310,2012-10-27 06:34:00
2:51 AM,47.8,46.9,97,30.12,0.2,NNW,3.5,-,N/A,Fog,Fog,330,2012-10-27 06:51:00
3:35 AM,48.2,46.4,93,30.09,0.5,NNW,3.5,-,N/A,Fog,Fog,330,2012-10-27 07:35:00
3:51 AM,46.9,45.9,96,30.10,1.0,NW,4.6,-,N/A,,Mostly Cloudy,310,2012-10-27 07:51:00
3:53 AM,46.4,46.4,100,30.09,1.5,WNW,4.6,-,N/A,,Mostly Cloudy,300,2012-10-27 07:53:00
4:06 AM,46.4,46.4,100,30.09,1.2,NW,4.6,-,N/A,,Mostly Cloudy,320,2012-10-27 08:06:00
4:22 AM,46.4,46.4,100,30.09,0.2,NNW,3.5,-,N/A,Fog,Fog,330,2012-10-27 08:22:00
4:43 AM,46.4,46.4,100,30.08,0.5,Calm,Calm,-,N/A,Fog,Fog,0,2012-10-27 08:43:00
4:51 AM,46.9,45.9,96,30.10,0.5,NNW,3.5,-,N/A,Fog,Fog,330,2012-10-27 08:51:00
5:14 AM,46.4,46.4,100,30.08,0.2,Calm,Calm,-,N/A,Fog,Fog,0,2012-10-27 09:14:00
5:25 AM,46.4,46.4,100,30.08,0.2,NNW,3.5,-,N/A,Fog,Fog,340,2012-10-27 09:25:00
5:51 AM,46.9,45.9,96,30.08,0.2,Calm,Calm,-,N/A,Fog,Fog,0,2012-10-27 09:51:00
6:00 AM,46.4,46.4,100,30.07,0.2,Calm,Calm,-,N/A,Fog,Fog,0,2012-10-27 10:00:00
6:41 AM,46.4,46.4,100,30.07,0.2,NNW,3.5,-,N/A,Fog,Fog,330,2012-10-27 10:41:00
6:51 AM,46.9,45.9,96,30.08,0.2,NW,4.6,-,N/A,Fog,Fog,320,2012-10-27 10:51:00
7:36 AM,46.4,44.6,93,30.08,0.2,Calm,Calm,-,N/A,Fog,Fog,0,2012-10-27 11:36:00
7:51 AM,45.9,45.0,97,30.10,0.5,Calm,Calm,-,N/A,Fog,Fog,0,2012-10-27 11:51:00
8:17 AM,46.4,46.4,100,30.10,0.2,Calm,Calm,-,N/A,Fog,Fog,0,2012-10-27 12:17:00
8:51 AM,46.9,45.9,96,30.12,0.2,NNW,3.5,-,N/A,Fog,Fog,330,2012-10-27 12:51:00
9:10 AM,48.2,46.4,93,30.11,0.8,NW,3.5,-,N/A,,Overcast,320,2012-10-27 13:10:00
9:24 AM,48.2,46.4,93,30.11,0.5,Calm,Calm,-,N/A,Fog,Fog,0,2012-10-27 13:24:00
9:34 AM,48.2,48.2,100,30.11,1.0,Calm,Calm,-,N/A,,Mostly Cloudy,0,2012-10-27 13:34:00
9:51 AM,48.9,47.8,96,30.12,1.0,Calm,Calm,-,N/A,,Mostly Cloudy,0,2012-10-27 13:51:00
10:01 AM,48.2,48.2,100,30.10,0.8,Calm,Calm,-,N/A,,Overcast,0,2012-10-27 14:01:00
10:27 AM,50.0,48.2,94,30.10,3.0,Calm,Calm,-,N/A,,Overcast,0,2012-10-27 14:27:00
11:34 AM,53.6,48.2,82,30.09,6.0,WNW,3.5,-,N/A,,Haze,290,2012-10-27 15:34:00
11:51 AM,54.9,48.9,80,30.09,10.0,NW,3.5,-,N/A,,Overcast,320,2012-10-27 15:51:00
12:51 PM,56.8,50.0,78,30.06,10.0,WNW,3.5,-,N/A,,Overcast,290,2012-10-27 16:51:00
1:51 PM,59.9,50.9,72,30.04,10.0,NW,3.5,-,N/A,,Mostly Cloudy,320,2012-10-27 17:51:00
2:51 PM,63.0,52.0,67,30.03,10.0,Calm,Calm,-,N/A,,Mostly Cloudy,0,2012-10-27 18:51:00
3:51 PM,63.9,52.0,65,30.03,10.0,NNW,3.5,-,N/A,,Mostly Cloudy,340,2012-10-27 19:51:00
4:51 PM,63.0,52.9,70,30.03,10.0,Calm,Calm,-,N/A,,Mostly Cloudy,0,2012-10-27 20:51:00
5:51 PM,59.9,52.0,75,30.04,10.0,East,5.8,-,N/A,,Clear,100,2012-10-27 21:51:00
6:51 PM,57.9,52.0,81,30.05,10.0,ESE,4.6,-,N/A,,Scattered Clouds,110,2012-10-27 22:51:00
7:51 PM,55.9,50.9,83,30.06,10.0,East,6.9,-,N/A,,Overcast,90,2012-10-27 23:51:00
8:51 PM,54.9,50.9,86,30.07,10.0,ESE,4.6,-,N/A,,Overcast,110,2012-10-28 00:51:00
9:51 PM,54.0,47.8,80,30.06,10.0,NE,3.5,-,N/A,,Overcast,50,2012-10-28 01:51:00
10:51 PM,54.9,46.9,75,30.07,10.0,North,3.5,-,N/A,,Overcast,350,2012-10-28 02:51:00
11:51 PM,54.0,46.9,77,30.05,10.0,North,3.5,-,N/A,,Overcast,350,2012-10-28 03:51:00